FW6406 Weather Reports


time (UTC)temp
C
wind
direction
speed
KPH
gust
KPH
rain 1hr
cm
rain 24hr
cm
rain mn
cm
humidity
%
barometer
mb
20260906213004 33 0 0.0 0.0 0.00 0.00 0.00 19 1006.3
20260906212504 33 0 0.0 0.0 0.00 0.00 0.00 19 1006.4
20260906212004 33 0 0.0 0.0 0.00 0.00 0.00 19 1006.4
20260906211503 34 0 0.0 0.0 0.00 0.00 0.00 19 1006.3
20260906211004 33 0 0.0 0.0 0.00 0.00 0.00 19 1006.4
20260906210504 33 0 0.0 0.0 0.00 0.00 0.00 19 1006.6
20260906210004 33 0 0.0 0.0 0.00 0.00 0.00 20 1006.7
20260906205003 33 0 0.0 0.0 0.00 0.00 0.00 20 1006.7
20260906204504 33 0 0.0 0.0 0.00 0.00 0.00 21 1006.8
20260906204004 33 4 0.0 0.0 0.00 0.00 0.00 21 1006.7
20260906203504 33 0 0.0 0.0 0.00 0.00 0.00 21 1006.8
20260906203004 33 0 0.0 0.0 0.00 0.00 0.00 21 1006.8
20260906202504 33 0 0.0 0.0 0.00 0.00 0.00 21 1006.8
20260906202004 33 0 0.0 0.0 0.00 0.00 0.00 22 1006.9
20260906201504 33 0 0.0 0.0 0.00 0.00 0.00 21 1006.9
20260906201004 33 0 0.0 0.0 0.00 0.00 0.00 22 1006.9
20260906200503 33 0 0.0 0.0 0.00 0.00 0.00 22 1006.8
20260906195004 33 1 0.0 0.0 0.00 0.00 0.00 23 1007.2
20260906194504 32 0 0.0 0.0 0.00 0.00 0.00 24 1007.3
20260906194005 32 0 0.0 0.0 0.00 0.00 0.00 24 1007.3
20260906193504 32 0 0.0 0.0 0.00 0.00 0.00 23 1007.4
20260906192504 32 0 0.0 0.0 0.00 0.00 0.00 24 1007.4
20260906191504 32 0 0.0 0.0 0.00 0.00 0.00 24 1007.5
20260906190505 33 0 0.0 0.0 0.00 0.00 0.00 24 1007.8
20260906190004 33 0 0.0 0.0 0.00 0.00 0.00 24 1007.9
20260906185503 32 0 0.0 0.0 0.00 0.00 0.00 25 1007.8
20260906184504 32 0 0.0 0.0 0.00 0.00 0.00 24 1008.0
20260906184004 32 0 0.0 0.0 0.00 0.00 0.00 25 1008.1
20260906183504 32 0 0.0 0.0 0.00 0.00 0.00 25 1008.3
20260906182504 32 0 0.0 0.0 0.00 0.00 0.00 25 1008.5
20260906181503 31 0 0.0 0.0 0.00 0.00 0.00 27 1008.6
20260906181004 31 0 0.0 0.0 0.00 0.00 0.00 27 1008.6
20260906180004 32 0 0.0 0.0 0.00 0.00 0.00 26 1008.8
20260906175504 32 0 0.0 0.0 0.00 0.00 0.00 27 1008.8
20260906175003 32 0 0.0 0.0 0.00 0.00 0.00 27 1008.9
20260906174004 31 0 0.0 0.0 0.00 0.00 0.00 28 1008.9
20260906173504 31 0 0.0 0.0 0.00 0.00 0.00 28 1009.0
20260906173004 31 0 0.0 0.0 0.00 0.00 0.00 28 1009.0
20260906172504 31 11 0.0 0.0 0.00 0.00 0.00 28 1009.1
20260906172004 31 12 0.0 0.0 0.00 0.00 0.00 29 1009.1
20260906171504 31 0 0.0 0.0 0.00 0.00 0.00 29 1009.1
20260906171004 31 0 0.0 0.0 0.00 0.00 0.00 30 1009.1
20260906170504 31 0 0.0 0.0 0.00 0.00 0.00 30 1009.1
20260906170004 31 0 0.0 0.0 0.00 0.00 0.00 30 1009.1
20260906165004 31 1 0.0 0.0 0.00 0.00 0.00 31 1009.1
20260906164503 31 4 0.0 0.0 0.00 0.00 0.00 30 1009.2
20260906163503 31 1 0.0 0.0 0.00 0.00 0.00 32 1009.3
20260906162503 30 4 0.0 0.0 0.00 0.00 0.00 33 1009.3
20260906162004 30 11 0.0 0.0 0.00 0.00 0.00 34 1009.3
20260906160003 29 0 0.0 0.0 0.00 0.00 0.00 37 1009.2
20260906155004 29 0 0.0 0.0 0.00 0.00 0.00 38 1009.2
20260906154504 29 0 0.0 0.0 0.00 0.00 0.00 38 1009.2
20260906154004 29 1 0.0 0.0 0.00 0.00 0.00 38 1009.1
20260906153503 28 4 0.0 0.0 0.00 0.00 0.00 39 1009.2
20260906153004 28 0 0.0 0.0 0.00 0.00 0.00 39 1009.2
20260906152504 28 0 0.0 0.0 0.00 0.00 0.00 40 1009.2
20260906151504 28 0 0.0 0.0 0.00 0.00 0.00 41 1009.3
20260906150504 27 0 0.0 0.0 0.00 0.00 0.00 42 1009.3
20260906145504 27 0 0.0 0.0 0.00 0.00 0.00 42 1009.3
20260906144504 27 0 0.0 0.0 0.00 0.00 0.00 43 1009.4
20260906144004 27 0 0.0 0.0 0.00 0.00 0.00 43 1009.4
20260906143504 27 0 0.0 0.0 0.00 0.00 0.00 42 1009.4
20260906142504 26 0 0.0 0.0 0.00 0.00 0.00 43 1009.4
20260906135504 25 0 0.0 0.0 0.00 0.00 0.00 45 1009.0
20260906135004 25 0 0.0 0.0 0.00 0.00 0.00 45 1009.0
20260906134504 25 0 0.0 0.0 0.00 0.00 0.00 46 1009.0
20260906134004 25 0 0.0 0.0 0.00 0.00 0.00 47 1008.9
20260906133504 24 0 0.0 0.0 0.00 0.00 0.00 47 1008.8
20260906133004 24 0 0.0 0.0 0.00 0.00 0.00 48 1008.7
20260906132504 23 0 0.0 0.0 0.00 0.00 0.00 48 1008.6
20260906132004 23 0 0.0 0.0 0.00 0.00 0.00 49 1008.6
20260906131004 23 2 0.0 0.0 0.00 0.00 0.00 49 1008.5
20260906130504 22 0 0.0 0.0 0.00 0.00 0.00 49 1008.5
20260906130003 22 0 0.0 0.0 0.00 0.00 0.00 50 1008.5
20260906125505 22 0 0.0 0.0 0.00 0.00 0.00 50 1008.5
20260906125003 22 9 0.0 0.0 0.00 0.00 0.00 50 1008.6
20260906124504 22 0 0.0 0.0 0.00 0.00 0.00 50 1008.5
20260906124004 22 8 0.0 0.0 0.00 0.00 0.00 50 1008.4
20260906123504 22 6 0.0 0.0 0.00 0.00 0.00 50 1008.4
20260906123004 22 0 0.0 0.0 0.00 0.00 0.00 50 1008.3
20260906122504 22 0 0.0 0.0 0.00 0.00 0.00 50 1008.3
20260906122004 22 0 0.0 0.0 0.00 0.00 0.00 50 1008.2
20260906121003 22 0 0.0 0.0 0.00 0.00 0.00 49 1008.1
20260906120004 22 0 0.0 0.0 0.00 0.00 0.00 49 1008.2
20260906115504 22 0 0.0 0.0 0.00 0.00 0.00 49 1008.2
20260906115004 22 0 0.0 0.0 0.00 0.00 0.00 49 1008.2
20260906114004 22 0 0.0 0.0 0.00 0.00 0.00 50 1008.1
20260906113504 22 0 0.0 0.0 0.00 0.00 0.00 49 1008.1
20260906112504 22 1 0.0 0.0 0.00 0.00 0.00 49 1008.0
20260906112004 22 0 0.0 0.0 0.00 0.00 0.00 49 1008.0
20260906111503 22 2 0.0 0.0 0.00 0.00 0.00 49 1008.0
20260906111004 22 3 0.0 0.0 0.00 0.00 0.00 49 1008.1
20260906110504 22 0 0.0 0.0 0.00 0.00 0.00 48 1008.0
20260906105504 22 9 0.0 0.0 0.00 0.00 0.00 48 1008.0
20260906105004 23 0 0.0 0.0 0.00 0.00 0.00 48 1007.9
20260906104004 23 0 0.0 0.0 0.00 0.00 0.00 47 1008.0
20260906103504 23 0 0.0 0.0 0.00 0.00 0.00 47 1007.9
20260906102504 23 0 0.0 0.0 0.00 0.00 0.00 47 1007.9
20260906102004 23 0 0.0 0.0 0.00 0.00 0.00 46 1007.8
20260906101504 23 0 0.0 0.0 0.00 0.00 0.00 46 1007.8
20260906101004 23 0 0.0 0.0 0.00 0.00 0.00 46 1007.6
20260906100504 23 1 0.0 0.0 0.00 0.00 0.00 46 1007.7
20260906100004 23 0 0.0 0.0 0.00 0.00 0.00 46 1007.7
20260906095503 23 0 0.0 0.0 0.00 0.00 0.00 45 1007.6
20260906094504 23 0 0.0 0.0 0.00 0.00 0.00 45 1007.6
20260906094004 23 0 0.0 0.0 0.00 0.00 0.00 45 1007.7
20260906093504 23 0 0.0 0.0 0.00 0.00 0.00 45 1007.6
20260906093004 23 0 0.0 0.0 0.00 0.00 0.00 45 1007.7
20260906092504 24 0 0.0 0.0 0.00 0.00 0.00 45 1007.7
20260906092004 24 0 0.0 0.0 0.00 0.00 0.00 45 1007.7
20260906091504 24 0 0.0 0.0 0.00 0.00 0.00 44 1007.7
20260906091004 24 0 0.0 0.0 0.00 0.00 0.00 44 1007.7
20260906085504 24 0 0.0 0.0 0.00 0.00 0.00 44 1007.6
20260906083504 25 0 0.0 0.0 0.00 0.00 0.00 43 1007.6
20260906083004 25 0 0.0 0.0 0.00 0.00 0.00 42 1007.5
20260906082504 25 0 0.0 0.0 0.00 0.00 0.00 42 1007.6
20260906082004 25 0 0.0 0.0 0.00 0.00 0.00 42 1007.6
20260906081504 25 0 0.0 0.0 0.00 0.00 0.00 43 1007.6
20260906081004 25 0 0.0 0.0 0.00 0.00 0.00 42 1007.6
20260906080504 25 0 0.0 0.0 0.00 0.00 0.00 42 1007.6
20260906080004 25 0 0.0 0.0 0.00 0.00 0.00 42 1007.6
20260906075504 25 0 0.0 0.0 0.00 0.00 0.00 42 1007.6
20260906075004 25 0 0.0 0.0 0.00 0.00 0.00 41 1007.7
20260906074503 25 0 0.0 0.0 0.00 0.00 0.00 41 1007.6
20260906073504 25 0 0.0 0.0 0.00 0.00 0.00 41 1007.5
20260906073004 25 0 0.0 0.0 0.00 0.00 0.00 40 1007.6
20260906072504 25 0 0.0 0.0 0.00 0.00 0.00 40 1007.7
20260906070503 26 0 0.0 0.0 0.00 0.00 0.00 40 1007.8
20260906070004 26 0 0.0 0.0 0.00 0.00 0.00 40 1007.9
20260906064504 26 0 0.0 0.0 0.00 0.00 0.00 39 1007.8
20260906063504 26 0 0.0 0.0 0.00 0.00 0.00 39 1007.8
20260906062504 26 0 0.0 0.0 0.00 0.00 0.00 39 1007.8
20260906062003 26 0 0.0 0.0 0.00 0.00 0.00 39 1007.8
20260906061504 26 0 0.0 0.0 0.00 0.00 0.00 39 1007.9
20260906060504 26 0 0.0 0.0 0.00 0.00 0.00 38 1007.9
20260906060003 26 0 0.0 0.0 0.00 0.00 0.00 37 1007.9
20260906055503 27 0 0.0 0.0 0.00 0.00 0.00 37 1007.9
20260906055004 27 0 0.0 0.0 0.00 0.00 0.00 36 1008.0
20260906054504 27 0 0.0 0.0 0.00 0.00 0.00 35 1008.0
20260906054004 27 0 0.0 0.0 0.00 0.00 0.00 35 1008.0
20260906052504 28 0 0.0 0.0 0.00 0.00 0.00 34 1007.7
20260906052004 28 0 0.0 0.0 0.00 0.00 0.00 33 1007.7
20260906051504 28 0 0.0 0.0 0.00 0.00 0.00 33 1007.8
20260906050004 28 0 0.0 0.0 0.00 0.00 0.00 32 1007.8
20260906045504 28 0 0.0 0.0 0.00 0.00 0.00 32 1007.9
20260906044504 28 0 0.0 0.0 0.00 0.00 0.00 32 1007.8
20260906044005 28 0 0.0 0.0 0.00 0.00 0.00 32 1007.8
20260906043504 28 0 0.0 0.0 0.00 0.00 0.00 32 1007.7
20260906042503 29 0 0.0 0.0 0.00 0.00 0.00 31 1007.8
20260906042003 29 0 0.0 0.0 0.00 0.00 0.00 31 1007.8
20260906041504 29 0 0.0 0.0 0.00 0.00 0.00 31 1007.8
20260906041004 29 1 0.0 0.0 0.00 0.00 0.00 31 1007.8
20260906040004 28 0 0.0 0.0 0.00 0.00 0.00 32 1007.9
20260906035504 28 0 0.0 0.0 0.00 0.00 0.00 32 1007.9
20260906035004 28 0 0.0 0.0 0.00 0.00 0.00 32 1007.9
20260906034504 28 1 0.0 0.0 0.00 0.00 0.00 31 1008.0
20260906033504 29 0 0.0 0.0 0.00 0.00 0.00 31 1008.0
20260906033004 29 0 0.0 0.0 0.00 0.00 0.00 31 1007.9
20260906031504 30 0 0.0 0.0 0.00 0.00 0.00 30 1007.5
20260906031004 30 0 0.0 0.0 0.00 0.00 0.00 30 1007.3
20260906030504 30 0 0.0 0.0 0.00 0.00 0.00 30 1007.2
20260906030004 30 11 0.0 0.0 0.00 0.00 0.00 30 1007.1
20260906025504 30 10 0.0 0.0 0.00 0.00 0.00 30 1007.0
20260906025004 30 11 0.0 0.0 0.00 0.00 0.00 28 1007.0
20260906024504 31 0 0.0 0.0 0.00 0.00 0.00 27 1006.8
20260906022003 31 0 0.0 0.0 0.00 0.00 0.00 26 1006.6
20260906020504 31 0 0.0 0.0 0.00 0.00 0.00 26 1006.4
20260906020004 31 0 0.0 0.0 0.00 0.00 0.00 26 1006.3
20260906015504 31 0 0.0 0.0 0.00 0.00 0.00 26 1006.2
20260906015004 31 0 0.0 0.0 0.00 0.00 0.00 26 1006.1
20260906014503 31 0 0.0 0.0 0.00 0.00 0.00 26 1006.0
20260906014004 31 0 0.0 0.0 0.00 0.00 0.00 26 1005.7
20260906013503 31 0 0.0 0.0 0.00 0.00 0.00 26 1005.6
20260906013003 31 0 0.0 0.0 0.00 0.00 0.00 26 1005.6
20260906012503 31 0 0.0 0.0 0.00 0.00 0.00 26 1005.6
20260906012004 32 0 0.0 0.0 0.00 0.00 0.00 26 1005.6
20260906011504 32 0 0.0 0.0 0.00 0.00 0.00 26 1005.5
20260906011004 32 0 0.0 0.0 0.00 0.00 0.00 26 1005.6
20260906005504 32 1 0.0 0.0 0.00 0.00 0.00 25 1005.4
20260906005003 32 0 0.0 0.0 0.00 0.00 0.00 24 1005.5
20260906003004 33 0 0.0 0.0 0.00 0.00 0.00 23 1005.3
20260906002004 33 0 0.0 0.0 0.00 0.00 0.00 23 1005.2
20260906001004 33 0 0.0 0.0 0.00 0.00 0.00 23 1005.1
20260906000503 33 0 0.0 0.0 0.00 0.00 0.00 24 1005.0
20260906000004 33 0 0.0 0.0 0.00 0.00 0.00 24 1004.9
20260905235004 33 5 0.0 0.0 0.00 0.00 0.00 23 1004.6
20260905234504 33 0 0.0 0.0 0.00 0.00 0.00 23 1004.6
20260905234004 34 0 0.0 0.0 0.00 0.00 0.00 21 1004.5
20260905233504 34 0 0.0 0.0 0.00 0.00 0.00 21 1004.5
20260905233004 34 0 0.0 0.0 0.00 0.00 0.00 20 1004.3
20260905232503 34 0 0.0 0.0 0.00 0.00 0.00 20 1004.2
20260905232004 34 0 0.0 0.0 0.00 0.00 0.00 21 1004.3
20260905230504 35 0 0.0 0.0 0.00 0.00 0.00 20 1004.3
20260905225004 35 0 0.0 0.0 0.00 0.00 0.00 19 1004.3
20260905224504 35 3 0.0 0.0 0.00 0.00 0.00 19 1004.3
20260905224003 35 0 0.0 0.0 0.00 0.00 0.00 18 1004.3
20260905222504 35 0 0.0 0.0 0.00 0.00 0.00 18 1004.4
20260905222004 35 7 0.0 0.0 0.00 0.00 0.00 19 1004.3
20260905221504 35 14 0.0 0.0 0.00 0.00 0.00 19 1004.3
20260905220504 35 11 0.0 0.0 0.00 0.00 0.00 19 1004.4
20260905215504 35 10 0.0 0.0 0.00 0.00 0.00 20 1004.5
20260905215004 35 9 0.0 0.0 0.00 0.00 0.00 20 1004.6
20260905214504 35 9 0.0 0.0 0.00 0.00 0.00 21 1004.7
20260905214004 35 3 0.0 0.0 0.00 0.00 0.00 20 1004.7